| time (UTC) | temp F | wind direction | speed knots | gust knots | rain 1hr in | rain 24hr in | rain mn in | humidity % | barometer mb |
| 20260508165057 | 70 | 327 | 0.9 | 0.9 | 0.00 | 0.00 | 0.00 | 39 | 1016.6 |
| 20260508164559 | 69 | 286 | 0.0 | 0.0 | 0.00 | 0.00 | 0.00 | 42 | 1016.9 |
| 20260508164057 | 70 | 256 | 0.0 | 0.9 | 0.00 | 0.00 | 0.00 | 37 | 1016.9 |
| 20260508163559 | 68 | 129 | 0.9 | 2.6 | 0.00 | 0.00 | 0.00 | 35 | 1016.9 |
| 20260508163059 | 69 | 31 | 0.9 | 0.9 | 0.00 | 0.00 | 0.00 | 43 | 1017.3 |
| 20260508162601 | 68 | 7 | 0.0 | 0.9 | 0.00 | 0.00 | 0.00 | 44 | 1017.3 |
| 20260508162058 | 68 | 71 | 0.9 | 0.9 | 0.00 | 0.00 | 0.00 | 37 | 1017.3 |
| 20260508161558 | 69 | 202 | 0.0 | 1.7 | 0.00 | 0.00 | 0.00 | 39 | 1017.3 |
| 20260508161100 | 68 | 120 | 0.0 | 0.9 | 0.00 | 0.00 | 0.00 | 35 | 1017.3 |
| 20260508160557 | 69 | 252 | 0.9 | 0.9 | 0.00 | 0.00 | 0.00 | 34 | 1017.3 |
| 20260508160058 | 68 | 347 | 0.9 | 1.7 | 0.00 | 0.00 | 0.00 | 40 | 1017.3 |
| 20260508155600 | 67 | 285 | 0.0 | 0.9 | 0.00 | 0.00 | 0.00 | 36 | 1017.6 |
| 20260508155057 | 68 | 273 | 0.9 | 0.9 | 0.00 | 0.00 | 0.00 | 42 | 1017.3 |
| 20260508154559 | 68 | 137 | 0.9 | 0.9 | 0.00 | 0.00 | 0.00 | 39 | 1017.6 |
| 20260508154057 | 68 | 135 | 0.9 | 0.9 | 0.00 | 0.00 | 0.00 | 43 | 1017.6 |
| 20260508153558 | 68 | 132 | 0.0 | 0.9 | 0.00 | 0.00 | 0.00 | 45 | 1017.6 |
| 20260508153058 | 68 | 163 | 0.0 | 0.9 | 0.00 | 0.00 | 0.00 | 45 | 1017.6 |
| 20260508152604 | 68 | 135 | 0.0 | 0.9 | 0.00 | 0.00 | 0.00 | 39 | 1017.6 |
| 20260508152057 | 68 | 135 | 0.0 | 1.7 | 0.00 | 0.00 | 0.00 | 42 | 1017.6 |
| 20260508151558 | 67 | 202 | 0.9 | 0.9 | 0.00 | 0.00 | 0.00 | 44 | 1017.6 |
| 20260508151059 | 66 | 111 | 0.0 | 0.9 | 0.00 | 0.00 | 0.00 | 48 | 1017.6 |
| 20260508150557 | 66 | 171 | 0.9 | 1.7 | 0.00 | 0.00 | 0.00 | 41 | 1017.6 |
| 20260508150058 | 64 | 37 | 0.0 | 0.9 | 0.00 | 0.00 | 0.00 | 55 | 1017.6 |
| 20260508145557 | 64 | 41 | 0.9 | 1.7 | 0.00 | 0.00 | 0.00 | 58 | 1017.6 |
| 20260508145058 | 64 | 298 | 0.0 | 0.9 | 0.00 | 0.00 | 0.00 | 61 | 1017.6 |
| 20260508144558 | 64 | 223 | 0.9 | 0.9 | 0.00 | 0.00 | 0.00 | 65 | 1017.9 |
| 20260508144100 | 62 | 282 | 0.9 | 0.9 | 0.00 | 0.00 | 0.00 | 50 | 1017.6 |
| 20260508143600 | 62 | 286 | 0.0 | 0.9 | 0.00 | 0.00 | 0.00 | 63 | 1017.9 |
| 20260508143058 | 62 | 286 | 0.0 | 0.0 | 0.00 | 0.00 | 0.00 | 63 | 1017.9 |
| 20260508142559 | 62 | 284 | 0.9 | 1.7 | 0.00 | 0.00 | 0.00 | 62 | 1017.9 |
| 20260508142100 | 61 | 240 | 0.9 | 0.9 | 0.00 | 0.00 | 0.00 | 72 | 1017.6 |
| 20260508141601 | 61 | 234 | 0.9 | 1.7 | 0.00 | 0.00 | 0.00 | 62 | 1017.9 |
| 20260508141100 | 60 | 200 | 0.0 | 1.7 | 0.00 | 0.00 | 0.00 | 65 | 1017.9 |
| 20260508140558 | 60 | 99 | 0.0 | 0.9 | 0.00 | 0.00 | 0.00 | 72 | 1017.9 |
| 20260508140100 | 60 | 102 | 0.9 | 0.9 | 0.00 | 0.00 | 0.00 | 68 | 1017.9 |
| 20260508135558 | 59 | 201 | 0.0 | 0.0 | 0.00 | 0.00 | 0.00 | 75 | 1017.9 |
| 20260508135059 | 59 | 202 | 0.0 | 0.9 | 0.00 | 0.00 | 0.00 | 73 | 1017.9 |
| 20260508134601 | 59 | 201 | 0.0 | 0.9 | 0.00 | 0.00 | 0.00 | 75 | 1017.9 |
| 20260508134057 | 59 | 197 | 0.9 | 0.9 | 0.00 | 0.00 | 0.00 | 73 | 1017.9 |
| 20260508133559 | 58 | 177 | 0.9 | 0.9 | 0.00 | 0.00 | 0.00 | 73 | 1017.9 |
| 20260508133057 | 58 | 107 | 0.0 | 0.9 | 0.00 | 0.00 | 0.00 | 71 | 1017.6 |
| 20260508132558 | 59 | 85 | 0.9 | 0.9 | 0.00 | 0.00 | 0.00 | 72 | 1017.6 |
| 20260508132102 | 58 | 158 | 0.0 | 0.0 | 0.00 | 0.00 | 0.00 | 71 | 1017.6 |
| 20260508131558 | 58 | 177 | 0.0 | 0.0 | 0.00 | 0.00 | 0.00 | 85 | 1017.6 |
| 20260508131100 | 58 | 178 | 0.0 | 0.0 | 0.00 | 0.00 | 0.00 | 85 | 1017.6 |
| 20260508130557 | 57 | 179 | 0.0 | 0.0 | 0.00 | 0.00 | 0.00 | 87 | 1017.9 |
| 20260508130057 | 57 | 179 | 0.0 | 0.0 | 0.00 | 0.00 | 0.00 | 86 | 1017.6 |
| 20260508125600 | 57 | 179 | 0.0 | 0.0 | 0.00 | 0.00 | 0.00 | 86 | 1017.3 |
| 20260508125058 | 58 | 179 | 0.0 | 0.0 | 0.00 | 0.00 | 0.00 | 88 | 1017.3 |
| 20260508124559 | 57 | 179 | 0.0 | 0.0 | 0.00 | 0.00 | 0.00 | 91 | 1017.6 |
| 20260508124058 | 56 | 179 | 0.0 | 0.0 | 0.00 | 0.00 | 0.00 | 91 | 1017.3 |
| 20260508123559 | 56 | 179 | 0.0 | 0.0 | 0.00 | 0.00 | 0.00 | 92 | 1017.3 |
| 20260508123057 | 56 | 179 | 0.0 | 0.0 | 0.00 | 0.00 | 0.00 | 92 | 1017.3 |
| 20260508122557 | 56 | 179 | 0.0 | 0.0 | 0.00 | 0.00 | 0.00 | 94 | 1017.3 |
| 20260508122057 | 55 | 179 | 0.0 | 0.0 | 0.00 | 0.00 | 0.00 | 97 | 1016.9 |
| 20260508121559 | 55 | 179 | 0.0 | 0.0 | 0.00 | 0.00 | 0.00 | 98 | 1016.9 |
| 20260508121057 | 54 | 179 | 0.0 | 0.0 | 0.00 | 0.00 | 0.00 | 99 | 1016.9 |
| 20260508120558 | 54 | 179 | 0.0 | 0.0 | 0.00 | 0.00 | 0.00 | 99 | 1016.9 |
| 20260508120059 | 54 | 179 | 0.0 | 0.0 | 0.00 | 0.00 | 0.00 | 99 | 1016.9 |
| 20260508115558 | 53 | 179 | 0.0 | 0.0 | 0.00 | 0.00 | 0.00 | 99 | 1016.9 |
| 20260508115058 | 53 | 179 | 0.0 | 0.0 | 0.00 | 0.00 | 0.00 | 99 | 1016.9 |
| 20260508114559 | 53 | 179 | 0.0 | 0.0 | 0.00 | 0.00 | 0.00 | 99 | 1016.9 |
| 20260508114059 | 53 | 179 | 0.0 | 0.0 | 0.00 | 0.00 | 0.00 | 99 | 1016.9 |
| 20260508113558 | 53 | 179 | 0.0 | 0.0 | 0.00 | 0.00 | 0.00 | 99 | 1016.6 |
| 20260508113058 | 53 | 179 | 0.0 | 0.0 | 0.00 | 0.00 | 0.00 | 99 | 1016.6 |
| 20260508112557 | 52 | 179 | 0.0 | 0.0 | 0.00 | 0.00 | 0.00 | 99 | 1016.3 |
| 20260508112057 | 52 | 179 | 0.0 | 0.0 | 0.00 | 0.00 | 0.00 | 99 | 1016.3 |
| 20260508111557 | 52 | 179 | 0.0 | 0.0 | 0.00 | 0.00 | 0.00 | 99 | 1016.3 |
| 20260508111100 | 52 | 179 | 0.0 | 0.0 | 0.00 | 0.00 | 0.00 | 99 | 1015.9 |
| 20260508110559 | 51 | 179 | 0.0 | 0.0 | 0.00 | 0.00 | 0.00 | 99 | 1016.3 |
| 20260508110057 | 51 | 179 | 0.0 | 0.0 | 0.00 | 0.00 | 0.00 | 99 | 1015.9 |
| 20260508105559 | 52 | 179 | 0.0 | 0.0 | 0.00 | 0.00 | 0.00 | 99 | 1015.9 |
| 20260508105100 | 52 | 179 | 0.0 | 0.0 | 0.00 | 0.00 | 0.00 | 99 | 1015.9 |
| 20260508104559 | 52 | 179 | 0.0 | 0.0 | 0.00 | 0.00 | 0.00 | 99 | 1015.9 |
| 20260508104058 | 52 | 179 | 0.0 | 0.0 | 0.00 | 0.00 | 0.00 | 99 | 1015.6 |
| 20260508103557 | 52 | 179 | 0.0 | 0.0 | 0.00 | 0.00 | 0.00 | 99 | 1015.6 |
| 20260508103101 | 52 | 179 | 0.0 | 0.0 | 0.00 | 0.00 | 0.00 | 99 | 1015.6 |
| 20260508102600 | 52 | 179 | 0.0 | 0.0 | 0.00 | 0.00 | 0.00 | 99 | 1015.2 |
| 20260508102057 | 52 | 179 | 0.0 | 0.0 | 0.00 | 0.00 | 0.00 | 99 | 1014.9 |
| 20260508101558 | 53 | 179 | 0.0 | 0.0 | 0.00 | 0.00 | 0.00 | 99 | 1015.2 |
| 20260508101057 | 53 | 179 | 0.0 | 0.0 | 0.00 | 0.00 | 0.00 | 99 | 1015.2 |
| 20260508100558 | 53 | 179 | 0.0 | 0.0 | 0.00 | 0.00 | 0.00 | 99 | 1015.2 |
| 20260508100100 | 53 | 179 | 0.0 | 0.0 | 0.00 | 0.00 | 0.00 | 99 | 1015.2 |
| 20260508095558 | 53 | 179 | 0.0 | 0.0 | 0.00 | 0.00 | 0.00 | 99 | 1015.2 |
| 20260508094701 | 53 | 179 | 0.0 | 0.0 | 0.00 | 0.00 | 0.00 | 99 | 1014.9 |
| 20260508094058 | 53 | 179 | 0.0 | 0.0 | 0.00 | 0.00 | 0.00 | 99 | 1014.9 |
| 20260508093558 | 53 | 179 | 0.0 | 0.0 | 0.00 | 0.00 | 0.00 | 99 | 1014.9 |
| 20260508093058 | 53 | 179 | 0.0 | 0.0 | 0.00 | 0.00 | 0.00 | 99 | 1014.9 |
| 20260508092558 | 54 | 179 | 0.0 | 0.0 | 0.00 | 0.00 | 0.00 | 99 | 1014.9 |
| 20260508092057 | 54 | 179 | 0.0 | 0.0 | 0.00 | 0.00 | 0.00 | 99 | 1014.9 |
| 20260508091559 | 54 | 179 | 0.0 | 0.0 | 0.00 | 0.00 | 0.00 | 99 | 1014.9 |
| 20260508091058 | 54 | 179 | 0.0 | 0.0 | 0.00 | 0.00 | 0.00 | 99 | 1014.6 |
| 20260508090558 | 54 | 179 | 0.0 | 0.0 | 0.00 | 0.00 | 0.00 | 99 | 1014.9 |
| 20260508090059 | 54 | 179 | 0.0 | 0.0 | 0.00 | 0.00 | 0.00 | 99 | 1014.6 |
| 20260508085600 | 54 | 179 | 0.0 | 0.0 | 0.00 | 0.00 | 0.00 | 99 | 1014.6 |
| 20260508085059 | 54 | 179 | 0.0 | 0.0 | 0.00 | 0.00 | 0.00 | 99 | 1014.9 |
| 20260508084559 | 54 | 179 | 0.0 | 0.0 | 0.00 | 0.00 | 0.00 | 99 | 1015.2 |
| 20260508084058 | 54 | 179 | 0.0 | 0.0 | 0.00 | 0.00 | 0.00 | 99 | 1014.9 |
| 20260508083557 | 54 | 179 | 0.0 | 0.0 | 0.00 | 0.00 | 0.00 | 98 | 1014.6 |
| 20260508083103 | 55 | 179 | 0.0 | 0.0 | 0.00 | 0.00 | 0.00 | 98 | 1014.6 |
| 20260508082559 | 55 | 179 | 0.0 | 0.0 | 0.00 | 0.00 | 0.00 | 98 | 1014.6 |
| 20260508082058 | 55 | 179 | 0.0 | 0.0 | 0.00 | 0.00 | 0.00 | 98 | 1014.6 |
| 20260508081557 | 55 | 179 | 0.0 | 0.0 | 0.00 | 0.00 | 0.00 | 98 | 1014.6 |
| 20260508081057 | 54 | 179 | 0.0 | 0.0 | 0.00 | 0.00 | 0.00 | 98 | 1014.2 |
| 20260508080600 | 54 | 179 | 0.0 | 0.0 | 0.00 | 0.00 | 0.00 | 98 | 1014.6 |
| 20260508080057 | 54 | 179 | 0.0 | 0.0 | 0.00 | 0.00 | 0.00 | 98 | 1014.2 |
| 20260508075557 | 54 | 179 | 0.0 | 0.0 | 0.00 | 0.00 | 0.00 | 98 | 1014.2 |
| 20260508075057 | 54 | 179 | 0.0 | 0.0 | 0.00 | 0.00 | 0.00 | 98 | 1014.2 |
| 20260508074600 | 54 | 179 | 0.0 | 0.0 | 0.00 | 0.00 | 0.00 | 98 | 1014.2 |
| 20260508074057 | 54 | 179 | 0.0 | 0.0 | 0.00 | 0.00 | 0.00 | 98 | 1014.2 |
| 20260508073557 | 54 | 179 | 0.0 | 0.0 | 0.00 | 0.00 | 0.00 | 98 | 1014.2 |
| 20260508073057 | 54 | 179 | 0.0 | 0.0 | 0.00 | 0.00 | 0.00 | 98 | 1014.2 |
| 20260508072600 | 54 | 179 | 0.0 | 0.0 | 0.00 | 0.00 | 0.00 | 98 | 1013.9 |
| 20260508072057 | 54 | 179 | 0.0 | 0.0 | 0.00 | 0.00 | 0.00 | 98 | 1013.9 |
| 20260508071558 | 54 | 179 | 0.0 | 0.0 | 0.00 | 0.00 | 0.00 | 98 | 1013.9 |
| 20260508071058 | 54 | 179 | 0.0 | 0.0 | 0.00 | 0.00 | 0.00 | 98 | 1014.2 |
| 20260508070559 | 54 | 179 | 0.0 | 0.0 | 0.00 | 0.00 | 0.00 | 98 | 1013.9 |
| 20260508070058 | 54 | 179 | 0.0 | 0.0 | 0.00 | 0.00 | 0.00 | 98 | 1013.9 |
| 20260508065557 | 54 | 179 | 0.0 | 0.0 | 0.00 | 0.00 | 0.00 | 98 | 1013.9 |
| 20260508065057 | 55 | 179 | 0.0 | 0.0 | 0.00 | 0.00 | 0.00 | 98 | 1013.9 |
| 20260508064558 | 55 | 179 | 0.0 | 0.0 | 0.00 | 0.00 | 0.00 | 98 | 1013.9 |
| 20260508064059 | 55 | 179 | 0.0 | 0.0 | 0.00 | 0.00 | 0.00 | 98 | 1013.9 |
| 20260508063557 | 55 | 179 | 0.0 | 0.0 | 0.00 | 0.00 | 0.00 | 98 | 1013.5 |
| 20260508063057 | 55 | 179 | 0.0 | 0.0 | 0.00 | 0.00 | 0.00 | 98 | 1013.9 |
| 20260508062601 | 55 | 179 | 0.0 | 0.0 | 0.00 | 0.00 | 0.00 | 98 | 1013.9 |
| 20260508062058 | 55 | 179 | 0.0 | 0.0 | 0.00 | 0.00 | 0.00 | 98 | 1014.2 |
| 20260508061559 | 55 | 179 | 0.0 | 0.0 | 0.00 | 0.00 | 0.00 | 98 | 1014.2 |
| 20260508061058 | 55 | 179 | 0.0 | 0.0 | 0.00 | 0.00 | 0.00 | 98 | 1014.2 |
| 20260508060559 | 55 | 179 | 0.0 | 0.0 | 0.00 | 0.00 | 0.00 | 98 | 1013.9 |
| 20260508060100 | 55 | 179 | 0.0 | 0.0 | 0.00 | 0.00 | 0.00 | 98 | 1014.2 |
| 20260508055559 | 56 | 179 | 0.0 | 0.0 | 0.00 | 0.00 | 0.00 | 98 | 1013.9 |
| 20260508055058 | 56 | 179 | 0.0 | 0.0 | 0.00 | 0.00 | 0.00 | 98 | 1014.2 |
| 20260508054600 | 56 | 179 | 0.0 | 0.0 | 0.00 | 0.00 | 0.00 | 98 | 1014.2 |
| 20260508054058 | 56 | 179 | 0.0 | 0.0 | 0.00 | 0.00 | 0.00 | 98 | 1014.2 |
| 20260508053557 | 56 | 179 | 0.0 | 0.0 | 0.00 | 0.00 | 0.00 | 98 | 1014.2 |
| 20260508053059 | 56 | 179 | 0.0 | 0.0 | 0.00 | 0.00 | 0.00 | 98 | 1013.9 |
| 20260508052557 | 57 | 179 | 0.0 | 0.0 | 0.00 | 0.00 | 0.00 | 98 | 1013.9 |
| 20260508052100 | 57 | 179 | 0.0 | 0.0 | 0.00 | 0.00 | 0.00 | 98 | 1013.9 |
| 20260508051559 | 57 | 179 | 0.0 | 0.0 | 0.00 | 0.00 | 0.00 | 98 | 1013.5 |
| 20260508051057 | 57 | 179 | 0.0 | 0.0 | 0.00 | 0.00 | 0.00 | 98 | 1013.9 |
| 20260508050557 | 57 | 179 | 0.0 | 0.0 | 0.00 | 0.00 | 0.00 | 98 | 1013.9 |
| 20260508050057 | 57 | 179 | 0.0 | 0.0 | 0.00 | 0.00 | 0.00 | 97 | 1013.5 |
| 20260508045557 | 57 | 179 | 0.0 | 0.0 | 0.00 | 0.00 | 0.00 | 97 | 1013.5 |
| 20260508045057 | 57 | 179 | 0.0 | 0.0 | 0.01 | 0.00 | 0.00 | 97 | 1013.5 |
| 20260508044559 | 57 | 179 | 0.0 | 0.0 | 0.01 | 0.00 | 0.00 | 97 | 1013.9 |
| 20260508044100 | 58 | 179 | 0.0 | 0.0 | 0.01 | 0.00 | 0.00 | 97 | 1013.5 |
| 20260508043558 | 58 | 179 | 0.0 | 0.0 | 0.01 | 0.00 | 0.00 | 97 | 1013.5 |
| 20260508043057 | 58 | 179 | 0.0 | 0.0 | 0.01 | 0.00 | 0.00 | 97 | 1013.5 |
| 20260508042558 | 58 | 179 | 0.0 | 0.0 | 0.01 | 0.00 | 0.00 | 97 | 1013.5 |
| 20260508042058 | 58 | 179 | 0.0 | 0.0 | 0.01 | 0.00 | 0.00 | 97 | 1013.5 |
| 20260508041558 | 58 | 179 | 0.0 | 0.0 | 0.01 | 0.00 | 0.00 | 97 | 1013.5 |
| 20260508041100 | 58 | 179 | 0.0 | 0.0 | 0.01 | 0.00 | 0.00 | 97 | 1013.5 |
| 20260508040558 | 58 | 179 | 0.0 | 0.0 | 0.01 | 0.00 | 0.00 | 97 | 1013.5 |
| 20260508040100 | 58 | 179 | 0.0 | 0.0 | 0.01 | 0.00 | 2.39 | 97 | 1013.5 |
| 20260508035559 | 58 | 179 | 0.0 | 0.0 | 0.01 | 0.00 | 2.39 | 97 | 1013.5 |
| 20260508035057 | 59 | 179 | 0.0 | 0.0 | 0.00 | 0.00 | 2.39 | 97 | 1013.5 |
| 20260508034558 | 59 | 179 | 0.0 | 0.0 | 0.00 | 0.00 | 2.38 | 97 | 1013.2 |
| 20260508034057 | 59 | 179 | 0.0 | 0.0 | 0.00 | 0.00 | 2.38 | 97 | 1013.5 |
| 20260508033600 | 58 | 179 | 0.0 | 0.0 | 0.00 | 0.00 | 2.38 | 97 | 1013.5 |
| 20260508033059 | 58 | 179 | 0.0 | 0.0 | 0.00 | 0.00 | 2.38 | 97 | 1013.2 |
| 20260508032559 | 58 | 179 | 0.0 | 0.0 | 0.00 | 0.00 | 2.38 | 97 | 1013.5 |
| 20260508032058 | 58 | 179 | 0.0 | 0.0 | 0.00 | 0.00 | 2.38 | 97 | 1013.5 |
| 20260508031557 | 59 | 179 | 0.0 | 0.0 | 0.00 | 0.00 | 2.38 | 97 | 1013.2 |
| 20260508031057 | 59 | 179 | 0.0 | 0.0 | 0.00 | 0.00 | 2.38 | 97 | 1013.2 |
| 20260508030559 | 59 | 179 | 0.0 | 0.0 | 0.00 | 0.00 | 2.38 | 97 | 1013.2 |
| 20260508030103 | 59 | 179 | 0.0 | 0.0 | 0.00 | 0.00 | 2.38 | 97 | 1013.2 |
| 20260508025558 | 59 | 179 | 0.0 | 0.0 | 0.00 | 0.00 | 2.38 | 97 | 1013.2 |
| 20260508025059 | 59 | 179 | 0.0 | 0.0 | 0.00 | 0.00 | 2.38 | 96 | 1013.2 |
| 20260508024558 | 59 | 179 | 0.0 | 0.0 | 0.00 | 0.00 | 2.38 | 96 | 1013.2 |
| 20260508024057 | 59 | 179 | 0.0 | 0.0 | 0.00 | 0.00 | 2.38 | 96 | 1012.9 |
| 20260508023557 | 59 | 179 | 0.0 | 0.0 | 0.00 | 0.00 | 2.38 | 96 | 1012.9 |
| 20260508023101 | 59 | 179 | 0.0 | 0.0 | 0.00 | 0.00 | 2.38 | 96 | 1012.9 |
| 20260508022558 | 59 | 179 | 0.0 | 0.0 | 0.00 | 0.00 | 2.38 | 96 | 1012.9 |
| 20260508022058 | 59 | 178 | 0.0 | 0.0 | 0.00 | 0.00 | 2.38 | 96 | 1012.9 |
| 20260508021559 | 59 | 178 | 0.0 | 0.0 | 0.00 | 0.00 | 2.38 | 96 | 1012.9 |
| 20260508021058 | 59 | 178 | 0.0 | 0.9 | 0.00 | 0.00 | 2.38 | 96 | 1012.9 |
| 20260508020557 | 60 | 230 | 0.0 | 0.0 | 0.00 | 0.00 | 2.38 | 96 | 1012.5 |
| 20260508020058 | 60 | 230 | 0.0 | 0.0 | 0.00 | 0.00 | 2.38 | 96 | 1012.5 |
| 20260508015557 | 59 | 230 | 0.0 | 0.0 | 0.00 | 0.00 | 2.38 | 96 | 1012.5 |
| 20260508015057 | 59 | 230 | 0.0 | 0.0 | 0.00 | 0.00 | 2.38 | 96 | 1012.2 |
| 20260508014557 | 60 | 230 | 0.0 | 0.0 | 0.00 | 0.00 | 2.38 | 96 | 1012.2 |
| 20260508014100 | 60 | 230 | 0.0 | 0.0 | 0.00 | 0.00 | 2.38 | 96 | 1012.2 |
| 20260508013558 | 60 | 230 | 0.0 | 0.0 | 0.00 | 0.00 | 2.38 | 96 | 1012.2 |
| 20260508013057 | 60 | 230 | 0.0 | 0.0 | 0.00 | 0.00 | 2.38 | 96 | 1012.2 |
| 20260508012557 | 60 | 230 | 0.0 | 0.9 | 0.00 | 0.00 | 2.38 | 95 | 1011.9 |
| 20260508012057 | 60 | 230 | 0.0 | 0.0 | 0.00 | 0.00 | 2.38 | 95 | 1011.9 |
| 20260508011558 | 60 | 230 | 0.0 | 0.0 | 0.00 | 0.00 | 2.38 | 95 | 1011.5 |
| 20260508011057 | 60 | 230 | 0.0 | 0.0 | 0.00 | 0.00 | 2.38 | 95 | 1011.5 |
| 20260508010557 | 60 | 230 | 0.0 | 0.0 | 0.01 | 0.00 | 2.38 | 95 | 1011.9 |
| 20260508010058 | 60 | 230 | 0.0 | 0.0 | 0.02 | 0.00 | 2.38 | 95 | 1011.5 |
| 20260508005558 | 60 | 230 | 0.0 | 0.0 | 0.04 | 0.00 | 2.38 | 95 | 1011.9 |
| 20260508005059 | 60 | 229 | 0.0 | 0.0 | 0.06 | 0.00 | 2.38 | 95 | 1011.5 |
| 20260508004558 | 60 | 230 | 0.0 | 0.9 | 0.08 | 0.00 | 2.38 | 94 | 1011.5 |
| 20260508004058 | 60 | 231 | 0.0 | 0.0 | 0.12 | 0.00 | 2.38 | 94 | 1011.2 |
| 20260508003558 | 60 | 230 | 0.0 | 0.0 | 0.15 | 0.00 | 2.38 | 94 | 1011.2 |
| 20260508003059 | 60 | 233 | 0.0 | 0.0 | 0.18 | 0.00 | 2.38 | 94 | 1010.8 |
| 20260508002558 | 60 | 234 | 0.0 | 0.0 | 0.21 | 0.00 | 2.38 | 94 | 1010.8 |
| 20260508002058 | 60 | 234 | 0.0 | 0.0 | 0.22 | 0.00 | 2.38 | 94 | 1010.8 |
| 20260508001557 | 60 | 234 | 0.0 | 0.0 | 0.22 | 0.00 | 2.38 | 94 | 1010.8 |
| 20260508001059 | 60 | 211 | 0.0 | 0.9 | 0.22 | 0.00 | 2.38 | 93 | 1010.8 |
| 20260508000600 | 60 | 174 | 0.0 | 0.0 | 0.21 | 0.00 | 2.38 | 94 | 1010.5 |
| 20260508000057 | 60 | 175 | 0.0 | 0.0 | 0.20 | 0.00 | 2.37 | 93 | 1010.2 |
| 20260507235557 | 60 | 176 | 0.0 | 0.0 | 0.18 | 0.00 | 2.36 | 93 | 1010.2 |
| 20260507235057 | 61 | 117 | 0.0 | 0.9 | 0.16 | 0.00 | 2.35 | 93 | 1009.8 |
| 20260507234559 | 61 | 77 | 0.0 | 1.7 | 0.13 | 0.00 | 2.31 | 93 | 1009.1 |
| 20260507234059 | 61 | 52 | 0.0 | 1.7 | 0.09 | 0.00 | 2.30 | 92 | 1009.1 |
| 20260507233557 | 61 | 61 | 0.9 | 1.7 | 0.06 | 0.00 | 2.24 | 91 | 1008.5 |
| 20260507233058 | 62 | 59 | 1.7 | 1.7 | 0.03 | 0.00 | 2.22 | 89 | 1008.5 |
| 20260507232558 | 63 | 67 | 0.9 | 1.7 | 0.01 | 0.00 | 2.18 | 85 | 1008.8 |
| 20260507232058 | 64 | 61 | 0.9 | 2.6 | 0.00 | 0.00 | 2.16 | 80 | 1008.5 |
| 20260507231557 | 65 | 64 | 1.7 | 4.3 | 0.00 | 0.00 | 2.15 | 79 | 1009.5 |
| 20260507231058 | 65 | 59 | 0.9 | 1.7 | 0.00 | 0.00 | 2.15 | 78 | 1009.1 |
| 20260507230558 | 66 | 83 | 0.9 | 0.9 | 0.00 | 0.00 | 2.15 | 77 | 1008.5 |
| 20260507230058 | 66 | 63 | 0.9 | 2.6 | 0.00 | 0.00 | 2.15 | 76 | 1008.5 |
| 20260507225557 | 67 | 97 | 0.9 | 2.6 | 0.00 | 0.00 | 2.15 | 76 | 1008.5 |
| 20260507225057 | 67 | 70 | 1.7 | 2.6 | 0.00 | 0.00 | 2.15 | 76 | 1007.8 |
| 20260507224557 | 68 | 43 | 0.9 | 1.7 | 0.00 | 0.00 | 2.15 | 77 | 1008.1 |
| 20260507224057 | 71 | 42 | 1.7 | 2.6 | 0.00 | 0.00 | 2.15 | 70 | 1008.1 |
| 20260507223558 | 74 | 84 | 0.9 | 0.9 | 0.00 | 0.00 | 2.15 | 69 | 1008.1 |
| 20260507223058 | 77 | 219 | 0.9 | 4.3 | 0.00 | 0.00 | 2.15 | 66 | 1007.5 |
| 20260507222558 | 78 | 279 | 0.9 | 0.9 | 0.00 | 0.00 | 2.15 | 64 | 1007.1 |
| 20260507222057 | 80 | 244 | 0.9 | 4.3 | 0.00 | 0.00 | 2.15 | 60 | 1006.8 |
| 20260507221602 | 80 | 316 | 2.6 | 4.3 | 0.00 | 0.00 | 2.15 | 58 | 1006.8 |
| 20260507221057 | 80 | 284 | 0.9 | 1.7 | 0.00 | 0.00 | 2.15 | 56 | 1006.8 |
| 20260507220558 | 80 | 299 | 1.7 | 1.7 | 0.00 | 0.00 | 2.15 | 57 | 1006.8 |
| 20260507220058 | 80 | 292 | 2.6 | 4.3 | 0.00 | 0.00 | 2.15 | 56 | 1006.8 |
| 20260507215557 | 80 | 274 | 1.7 | 5.2 | 0.00 | 0.00 | 2.15 | 56 | 1006.4 |
| 20260507215058 | 79 | 285 | 0.9 | 4.3 | 0.00 | 0.00 | 2.15 | 59 | 1006.8 |
| 20260507214557 | 80 | 310 | 1.7 | 5.2 | 0.00 | 0.00 | 2.15 | 59 | 1006.8 |
| 20260507214057 | 80 | 263 | 0.9 | 5.2 | 0.00 | 0.00 | 2.15 | 59 | 1006.4 |
| 20260507213559 | 79 | 294 | 2.6 | 2.6 | 0.00 | 0.00 | 2.15 | 58 | 1006.4 |
| 20260507213059 | 78 | 275 | 0.9 | 4.3 | 0.00 | 0.00 | 2.15 | 61 | 1006.4 |
| 20260507212600 | 79 | 335 | 0.9 | 5.2 | 0.00 | 0.00 | 2.15 | 60 | 1006.4 |
| 20260507212059 | 78 | 319 | 2.6 | 4.3 | 0.00 | 0.00 | 2.15 | 59 | 1006.4 |
| 20260507211558 | 77 | 319 | 0.0 | 2.6 | 0.00 | 0.00 | 2.15 | 61 | 1006.4 |
| 20260507211057 | 79 | 292 | 0.9 | 2.6 | 0.00 | 0.00 | 2.15 | 60 | 1006.8 |
| 20260507210557 | 76 | 292 | 1.7 | 1.7 | 0.00 | 0.00 | 2.15 | 61 | 1006.8 |
| 20260507210058 | 78 | 220 | 1.7 | 1.7 | 0.00 | 0.00 | 2.15 | 62 | 1006.8 |
| 20260507205557 | 79 | 278 | 0.0 | 2.6 | 0.00 | 0.00 | 2.15 | 60 | 1006.8 |
| 20260507205058 | 81 | 262 | 0.9 | 0.9 | 0.00 | 0.00 | 2.15 | 60 | 1006.4 |
| 20260507204558 | 79 | 297 | 2.6 | 4.3 | 0.00 | 0.00 | 2.15 | 55 | 1006.1 |
| 20260507204059 | 77 | 300 | 0.9 | 5.2 | 0.00 | 0.00 | 2.15 | 61 | 1006.8 |
| 20260507203558 | 75 | 75 | 0.9 | 0.9 | 0.00 | 0.00 | 2.15 | 63 | 1006.8 |
| 20260507203059 | 77 | 300 | 0.0 | 2.6 | 0.00 | 0.00 | 2.15 | 60 | 1006.8 |
| 20260507202559 | 79 | 269 | 0.9 | 2.6 | 0.00 | 0.00 | 2.15 | 59 | 1007.1 |
| 20260507202059 | 79 | 272 | 1.7 | 2.6 | 0.00 | 0.00 | 2.15 | 58 | 1006.8 |
| 20260507201600 | 76 | 266 | 1.7 | 2.6 | 0.00 | 0.00 | 2.15 | 61 | 1006.8 |
| 20260507201059 | 76 | 296 | 0.9 | 2.6 | 0.00 | 0.00 | 2.15 | 62 | 1006.8 |
| 20260507200600 | 77 | 263 | 1.7 | 4.3 | 0.00 | 0.00 | 2.15 | 61 | 1006.8 |
| 20260507200057 | 76 | 285 | 0.0 | 2.6 | 0.00 | 0.00 | 2.15 | 64 | 1007.1 |
| 20260507195601 | 77 | 255 | 0.9 | 1.7 | 0.00 | 0.00 | 2.15 | 62 | 1007.1 |
| 20260507195100 | 77 | 266 | 0.9 | 4.3 | 0.00 | 0.00 | 2.15 | 62 | 1007.1 |
| 20260507194557 | 77 | 301 | 0.0 | 1.7 | 0.00 | 0.00 | 2.15 | 63 | 1007.5 |
| 20260507194058 | 77 | 265 | 0.9 | 1.7 | 0.00 | 0.00 | 2.15 | 63 | 1007.5 |
| 20260507193600 | 77 | 102 | 0.9 | 2.6 | 0.00 | 0.00 | 2.15 | 64 | 1007.8 |
| 20260507193059 | 77 | 255 | 1.7 | 2.6 | 0.00 | 0.00 | 2.15 | 63 | 1007.8 |
| 20260507192558 | 77 | 261 | 2.6 | 2.6 | 0.00 | 0.00 | 2.15 | 61 | 1007.5 |
| 20260507192100 | 74 | 304 | 0.0 | 1.7 | 0.00 | 0.00 | 2.15 | 68 | 1007.5 |
| 20260507191559 | 74 | 252 | 0.0 | 1.7 | 0.00 | 0.00 | 2.15 | 74 | 1007.8 |
| 20260507191100 | 73 | 265 | 0.9 | 1.7 | 0.00 | 0.00 | 2.15 | 70 | 1007.8 |
| 20260507190558 | 74 | 269 | 0.9 | 0.9 | 0.00 | 0.00 | 2.15 | 72 | 1008.1 |
| 20260507190057 | 75 | 269 | 1.7 | 2.6 | 0.00 | 0.00 | 2.15 | 68 | 1008.1 |
| 20260507185558 | 74 | 352 | 0.9 | 0.9 | 0.00 | 0.00 | 2.15 | 73 | 1007.8 |
| 20260507185059 | 75 | 287 | 0.0 | 1.7 | 0.00 | 0.00 | 2.15 | 78 | 1007.8 |
| 20260507184600 | 74 | 295 | 1.7 | 2.6 | 0.00 | 0.00 | 2.15 | 67 | 1007.8 |
| 20260507184057 | 74 | 290 | 0.9 | 1.7 | 0.00 | 0.00 | 2.15 | 68 | 1007.5 |
| 20260507183558 | 72 | 253 | 0.9 | 1.7 | 0.00 | 0.00 | 2.15 | 72 | 1007.8 |
| 20260507183058 | 73 | 275 | 0.9 | 0.9 | 0.00 | 0.00 | 2.15 | 76 | 1007.8 |
| 20260507182601 | 73 | 262 | 0.9 | 0.9 | 0.00 | 0.00 | 2.15 | 78 | 1007.8 |
| 20260507182057 | 73 | 260 | 0.9 | 1.7 | 0.00 | 0.00 | 2.15 | 75 | 1007.8 |
| 20260507181558 | 74 | 278 | 0.9 | 1.7 | 0.00 | 0.00 | 2.15 | 74 | 1007.8 |
| 20260507181058 | 72 | 259 | 0.9 | 1.7 | 0.00 | 0.00 | 2.15 | 75 | 1007.8 |
| 20260507180607 | 73 | 274 | 0.0 | 0.0 | 0.00 | 0.00 | 2.15 | 81 | 1007.8 |
| 20260507180057 | 71 | 280 | 0.9 | 0.9 | 0.00 | 0.00 | 2.15 | 82 | 1007.8 |
| 20260507175558 | 71 | 242 | 0.9 | 1.7 | 0.00 | 0.00 | 2.15 | 80 | 1008.1 |
| 20260507175058 | 72 | 355 | 0.9 | 1.7 | 0.00 | 0.00 | 2.15 | 80 | 1008.1 |
| 20260507174558 | 71 | 25 | 0.9 | 0.9 | 0.00 | 0.00 | 2.15 | 85 | 1008.1 |
| 20260507174058 | 70 | 252 | 0.9 | 1.7 | 0.00 | 0.00 | 2.15 | 85 | 1008.5 |
| 20260507173559 | 69 | 278 | 0.9 | 1.7 | 0.00 | 0.00 | 2.15 | 87 | 1008.8 |
| 20260507173058 | 69 | 245 | 0.0 | 1.7 | 0.00 | 0.00 | 2.15 | 87 | 1008.5 |
| 20260507172559 | 70 | 269 | 0.9 | 0.9 | 0.00 | 0.00 | 2.15 | 88 | 1008.5 |
| 20260507172058 | 70 | 268 | 0.0 | 0.0 | 0.00 | 0.00 | 2.15 | 88 | 1008.1 |
| 20260507171559 | 70 | 268 | 0.0 | 0.9 | 0.00 | 0.00 | 2.15 | 89 | 1008.5 |
| 20260507171058 | 70 | 282 | 0.0 | 0.9 | 0.00 | 0.00 | 2.15 | 90 | 1008.8 |
| 20260507170600 | 70 | 282 | 0.0 | 0.9 | 0.00 | 0.00 | 2.15 | 91 | 1008.5 |
| 20260507170058 | 70 | 279 | 0.9 | 0.9 | 0.00 | 0.00 | 2.15 | 90 | 1008.5 |
| 20260507165559 | 70 | 286 | 0.9 | 0.9 | 0.00 | 0.00 | 2.15 | 90 | 1008.1 |